• In Deutschland
  • Länderverzeichnis
  • Für 7 Tage
  • Wassertemperatur
  • Satellitenkarten
  • Wetterkarte
  • Widgets
  • user-avatar
    Anmelden

    Stündliche Wetter Eisenstadt

    Heute, 23 Juni, Freitag

    Zeit Temperatur Niederschläge Wind Luftdruck Luftfeuchtigkeit
    00:00 +23°C° 0 mm 2 m/S 721 mmHg 75%
    01:00 +21°C° 0 mm 2 m/S 720 mmHg 77%
    02:00 +21°C° 0 mm 2 m/S 720 mmHg 76%
    03:00 +21°C° 0 mm 2 m/S 720 mmHg 74%
    04:00 +21°C° 0 mm 2 m/S 720 mmHg 73%
    05:00 +22°C° 0 mm 3 m/S 720 mmHg 70%
    06:00 +24°C° 0 mm 3 m/S 720 mmHg 68%
    07:00 +26°C° 0 mm 3 m/S 721 mmHg 65%
    08:00 +27°C° 0 mm 4 m/S 721 mmHg 59%
    09:00 +29°C° 0 mm 5 m/S 721 mmHg 53%
    10:00 +30°C° 0 mm 6 m/S 721 mmHg 48%
    11:00 +32°C° 0 mm 6 m/S 721 mmHg 45%
    12:00 +32°C° 0 mm 7 m/S 721 mmHg 43%
    13:00 +33°C° 0 mm 8 m/S 722 mmHg 40%
    14:00 +32°C° 0 mm 7 m/S 722 mmHg 43%
    15:00 +32°C° 0 mm 7 m/S 722 mmHg 46%
    16:00 +30°C° 0 mm 6 m/S 722 mmHg 49%
    17:00 +29°C° 0 mm 6 m/S 722 mmHg 54%
    18:00 +27°C° 0 mm 5 m/S 722 mmHg 60%
    19:00 +26°C° 0 mm 4 m/S 722 mmHg 66%
    20:00 +25°C° 0 mm 4 m/S 722 mmHg 69%
    21:00 +22°C° 0 mm 3 m/S 723 mmHg 73%
    22:00 +21°C° 0 mm 3 m/S 723 mmHg 77%
    23:00 +21°C° 0 mm 3 m/S 723 mmHg 78%

    Morgen, 24 Juni, Samstag

    Zeit Temperatur Niederschläge Wind Luftdruck Luftfeuchtigkeit
    00:00 +20°C° 0 mm 3 m/S 723 mmHg 80%
    01:00 +20°C° 0 mm 3 m/S 723 mmHg 82%
    02:00 +19°C° 0 mm 3 m/S 723 mmHg 84%
    03:00 +18°C° 0 mm 3 m/S 723 mmHg 86%
    04:00 +18°C° 0 mm 2 m/S 723 mmHg 89%
    05:00 +19°C° 0 mm 2 m/S 724 mmHg 83%
    06:00 +21°C° 0 mm 3 m/S 724 mmHg 76%
    07:00 +22°C° 0 mm 3 m/S 724 mmHg 70%
    08:00 +25°C° 0,1 mm 3 m/S 724 mmHg 66%
    09:00 +26°C° 0,1 mm 3 m/S 724 mmHg 62%
    10:00 +27°C° 0,1 mm 3 m/S 725 mmHg 58%
    11:00 +28°C° 0,4 mm 3 m/S 724 mmHg 57%
    12:00 +29°C° 0,4 mm 3 m/S 724 mmHg 56%
    13:00 +29°C° 0,4 mm 4 m/S 724 mmHg 55%
    14:00 +29°C° 0,5 mm 3 m/S 723 mmHg 55%
    15:00 +29°C° 0,5 mm 3 m/S 723 mmHg 56%
    16:00 +29°C° 0,5 mm 3 m/S 723 mmHg 57%
    17:00 +28°C° 0,6 mm 2 m/S 722 mmHg 64%
    18:00 +27°C° 0,6 mm 2 m/S 722 mmHg 71%
    19:00 +25°C° 0,6 mm 1 m/S 722 mmHg 78%
    20:00 +24°C° 0,7 mm 1 m/S 722 mmHg 80%
    21:00 +23°C° 0,7 mm 1 m/S 722 mmHg 83%
    22:00 +22°C° 0,7 mm 1 m/S 722 mmHg 86%
    23:00 +21°C° 1,4 mm 1 m/S 722 mmHg 87%

    übermorgen, 25 Juni, Sonntag

    Zeit Temperatur Niederschläge Wind Luftdruck Luftfeuchtigkeit
    00:00 +20°C° 1,4 mm 2 m/S 722 mmHg 87%
    01:00 +19°C° 1,4 mm 2 m/S 722 mmHg 88%
    02:00 +19°C° 0,6 mm 2 m/S 722 mmHg 88%
    03:00 +19°C° 0,6 mm 2 m/S 722 mmHg 87%
    04:00 +19°C° 0,6 mm 3 m/S 722 mmHg 87%
    05:00 +19°C° 0,1 mm 3 m/S 722 mmHg 85%
    06:00 +19°C° 0,1 mm 3 m/S 722 mmHg 82%
    07:00 +19°C° 0,1 mm 3 m/S 722 mmHg 80%
    08:00 +19°C° 0,6 mm 3 m/S 722 mmHg 81%
    09:00 +19°C° 0,6 mm 3 m/S 723 mmHg 81%
    10:00 +18°C° 0,6 mm 3 m/S 723 mmHg 81%
    11:00 +18°C° 0,7 mm 2 m/S 723 mmHg 82%
    12:00 +18°C° 0,7 mm 2 m/S 722 mmHg 83%
    13:00 +18°C° 0,7 mm 2 m/S 722 mmHg 84%
    14:00 +18°C° 0,9 mm 2 m/S 722 mmHg 84%
    15:00 +18°C° 0,9 mm 2 m/S 722 mmHg 83%
    16:00 +18°C° 0,9 mm 2 m/S 722 mmHg 83%
    17:00 +18°C° 0 mm 2 m/S 722 mmHg 82%
    18:00 +18°C° 0 mm 2 m/S 722 mmHg 82%
    19:00 +19°C° 0 mm 1 m/S 722 mmHg 81%
    20:00 +18°C° 0 mm 2 m/S 722 mmHg 83%
    21:00 +17°C° 0 mm 2 m/S 722 mmHg 84%
    22:00 +16°C° 0 mm 2 m/S 722 mmHg 85%
    23:00 +15°C° 0 mm 2 m/S 722 mmHg 85%

    26 Juni, Montag

    Zeit Temperatur Niederschläge Wind Luftdruck Luftfeuchtigkeit
    00:00 +15°C° 0 mm 2 m/S 722 mmHg 86%
    01:00 +15°C° 0 mm 2 m/S 722 mmHg 86%
    02:00 +15°C° 0 mm 2 m/S 722 mmHg 87%
    03:00 +14°C° 0 mm 2 m/S 722 mmHg 88%
    04:00 +14°C° 0 mm 2 m/S 722 mmHg 90%
    05:00 +16°C° 0 mm 2 m/S 723 mmHg 84%
    06:00 +18°C° 0 mm 2 m/S 723 mmHg 78%
    07:00 +20°C° 0 mm 2 m/S 724 mmHg 72%
    08:00 +21°C° 0 mm 2 m/S 724 mmHg 67%
    09:00 +23°C° 0 mm 2 m/S 724 mmHg 62%
    10:00 +25°C° 0 mm 2 m/S 724 mmHg 57%
    11:00 +25°C° 0 mm 2 m/S 724 mmHg 57%
    12:00 +25°C° 0 mm 2 m/S 724 mmHg 56%
    13:00 +26°C° 0 mm 2 m/S 723 mmHg 55%
    14:00 +26°C° 0 mm 2 m/S 723 mmHg 55%
    15:00 +27°C° 0 mm 2 m/S 723 mmHg 55%
    16:00 +27°C° 0 mm 2 m/S 722 mmHg 54%
    17:00 +26°C° 0 mm 2 m/S 722 mmHg 61%
    18:00 +25°C° 0 mm 2 m/S 722 mmHg 67%
    19:00 +23°C° 0 mm 2 m/S 722 mmHg 73%
    20:00 +21°C° 0 mm 2 m/S 722 mmHg 77%
    21:00 +19°C° 0 mm 2 m/S 722 mmHg 81%
    22:00 +18°C° 0 mm 2 m/S 722 mmHg 85%
    23:00 +18°C° 0 mm 2 m/S 722 mmHg 85%

    27 Juni, Dienstag

    Zeit Temperatur Niederschläge Wind Luftdruck Luftfeuchtigkeit
    00:00 +17°C° 0 mm 2 m/S 722 mmHg 86%
    01:00 +17°C° 0 mm 2 m/S 721 mmHg 86%
    02:00 +17°C° 0 mm 2 m/S 721 mmHg 87%
    03:00 +16°C° 0 mm 2 m/S 721 mmHg 87%
    04:00 +16°C° 0 mm 3 m/S 720 mmHg 88%
    05:00 +18°C° 0 mm 3 m/S 721 mmHg 83%
    06:00 +20°C° 0 mm 3 m/S 721 mmHg 78%
    07:00 +21°C° 0 mm 4 m/S 721 mmHg 73%
    08:00 +23°C° 0 mm 4 m/S 721 mmHg 68%
    09:00 +25°C° 0 mm 5 m/S 721 mmHg 63%
    10:00 +27°C° 0 mm 5 m/S 721 mmHg 58%
    11:00 +28°C° 0 mm 5 m/S 721 mmHg 55%
    12:00 +29°C° 0 mm 5 m/S 721 mmHg 53%
    13:00 +30°C° 0 mm 5 m/S 720 mmHg 51%
    14:00 +30°C° 0,3 mm 4 m/S 720 mmHg 53%
    15:00 +30°C° 0,3 mm 4 m/S 720 mmHg 54%
    16:00 +30°C° 0,3 mm 4 m/S 719 mmHg 56%
    17:00 +29°C° 0,1 mm 3 m/S 719 mmHg 62%
    18:00 +27°C° 0,1 mm 3 m/S 719 mmHg 68%
    19:00 +26°C° 0,1 mm 2 m/S 719 mmHg 74%
    20:00 +25°C° 0 mm 2 m/S 719 mmHg 78%
    21:00 +23°C° 0 mm 2 m/S 719 mmHg 81%
    22:00 +20°C° 0 mm 2 m/S 719 mmHg 85%
    23:00 +20°C° 0 mm 2 m/S 719 mmHg 85%

    28 Juni, Mittwoch

    Zeit Temperatur Niederschläge Wind Luftdruck Luftfeuchtigkeit
    00:00 +21°C° 0 mm 1 m/S 719 mmHg 85%
    01:00 +20°C° 0 mm 1 m/S 719 mmHg 86%
    02:00 +20°C° 0 mm 1 m/S 719 mmHg 86%
    03:00 +19°C° 0 mm 1 m/S 718 mmHg 86%
    04:00 +19°C° 0 mm 1 m/S 718 mmHg 87%
    05:00 +21°C° 0 mm 1 m/S 719 mmHg 80%
    06:00 +23°C° 0 mm 1 m/S 719 mmHg 74%
    07:00 +25°C° 0 mm 1 m/S 719 mmHg 67%
    08:00 +27°C° 0 mm 2 m/S 719 mmHg 62%
    09:00 +28°C° 0 mm 2 m/S 719 mmHg 57%
    10:00 +30°C° 0 mm 3 m/S 719 mmHg 52%
    11:00 +32°C° 0 mm 4 m/S 718 mmHg 49%
    12:00 +33°C° 0 mm 6 m/S 717 mmHg 45%
    13:00 +34°C° 0 mm 7 m/S 717 mmHg 42%
    14:00 +33°C° 0 mm 7 m/S 716 mmHg 42%
    15:00 +33°C° 0 mm 8 m/S 715 mmHg 42%
    16:00 +33°C° 0 mm 8 m/S 715 mmHg 42%
    17:00 +32°C° 0 mm 8 m/S 714 mmHg 46%
    18:00 +29°C° 0 mm 7 m/S 714 mmHg 49%
    19:00 +28°C° 0 mm 7 m/S 713 mmHg 53%
    20:00 +27°C° 0 mm 7 m/S 713 mmHg 53%
    21:00 +26°C° 0 mm 6 m/S 713 mmHg 53%
    22:00 +24°C° 0 mm 6 m/S 713 mmHg 53%
    23:00 +23°C° 0,1 mm 6 m/S 713 mmHg 57%
    Mehr zeigen